Flag for U.S.A. Weather past 2 weeks in Wake Island, Wake Island, U.S.A.

Now
84 °F

Sunny.


Feels Like: 89 °F
Forecast: 79 / 86 °F
Wind: 21 mph from East

Location: Wake Island Airfld

Current Time: May 29, 2015 at 6:30:32 PM

Latest Report: May 29, 2015 at 5:58 PM


Visibility: N/A

Pressure: 30.01 "Hg

Humidity: 67%

Dew point: 71 °F

Location of Wake IslandLocation

Historic Weather in Wake Island — Graph

°F

Wake Island temperature yesterday

Maximum temperature yesterday: 87 °F (at 1:58 PM)
Minimum temperature yesterday: 78 °F (at 4:58 AM)
Average temperature yesterday: 81 °F

Past Weeks' High & Low Weather Summary

 TemperatureHumidityPressure
High87 °F (May 29, 1:58 PM)94% (May 29, 3:58 AM)30.11 "Hg (May 29, 3:58 AM)
Low75 °F (May 16, 3:58 AM)59% (May 21, 2:58 PM)29.93 "Hg (May 27, 3:58 PM)
Average81 °F76%30.02 "Hg
* Reported May 14 4:58 PM — May 29 4:58 PM, Wake Island, Weather by CustomWeather, © 2015

Note: Actual official high and low records may vary slightly from our data, if they occured in-between our weather recording intervals... More about our weather records

Advertising

Wake Island weather history for previous 24 hours

 ConditionsComfort  
Time TempWeatherWind HumidityBarometerVisibility
4:58 PM
Fri, May 29
85 °FPassing clouds.21 mph68%30.00 "HgN/A
3:58 PM86 °FPassing clouds.20 mph63%30.01 "HgN/A
2:58 PM86 °FSunny.20 mph65%30.01 "HgN/A
1:58 PM87 °FPassing clouds.22 mph64%30.03 "HgN/A
12:58 PM87 °FScattered clouds.21 mph64%30.05 "HgN/A
11:58 AM86 °FPassing clouds.18 mph67%30.07 "HgN/A
10:58 AM85 °FPassing clouds.20 mph70%30.08 "HgN/A
9:58 AM84 °FPassing clouds.20 mph73%30.08 "HgN/A
8:58 AM83 °FPassing clouds.17 mph76%30.07 "HgN/A
7:58 AM81 °FScattered clouds.15 mph81%30.07 "HgN/A
6:58 AM79 °FClear.16 mph86%30.05 "HgN/A
5:58 AM78 °FPartly cloudy.9 mph89%30.03 "HgN/A
5:04 AM77 °FLight rain. Partly cloudy.12 mph94%30.01 "HgN/A
5:03 AM77 °FPartly cloudy.13 mph94%30.01 "HgN/A
4:03 AM77 °FOvercast.3 mph94%30.00 "HgN/A
3:58 AM77 °FOvercast.5 mph94%30.02 "HgN/A
2:58 AM79 °FOvercast.5 mph78%30.02 "HgN/A
1:58 AM79 °FPassing clouds.8 mph85%30.03 "HgN/A
12:58 AM80 °FPassing clouds.7 mph83%30.04 "HgN/A
11:58 PM
Thu, May 28
80 °FPassing clouds.9 mph82%30.06 "HgN/A
10:58 PM80 °FPassing clouds.9 mph82%30.06 "HgN/A
9:58 PM80 °FPartly cloudy.10 mph82%30.05 "HgN/A
8:58 PM80 °FPassing clouds.10 mph81%30.03 "HgN/A
7:58 PM81 °FScattered clouds.13 mph80%30.02 "HgN/A
6:58 PM82 °FPassing clouds.12 mph75%29.99 "HgN/A
Weather by CustomWeather, © 2015

See weather overviewHow to use our weather pages